Location: Berlin
(38.3226°N, 75.2177°W)
Time: 15:42:01
(UTC+00:00)

Cosmos 2195 Rocket - Pass Details

Date: 26 October 2020
Orbit: 948 x 994 km, 82.9° (Epoch: 26 November)

Event Time Altitude Azimuth Distance (km) Brightness Sun altitude
Rises 10:07:14 0° 189° (S) 3,667 7.5 -15.1°
Reaches altitude 10° 10:09:45 10° 191° (S) 2,716 6.8 -14.6°
Maximum altitude 10:15:59 77° 277° (W) 994 4.4 -13.4°
Drops below altitude 10° 10:22:11 10° 4° (N) 2,702 6.8 -12.2°
Sets 10:24:41 0° 6° (N) 3,646 7.5 -11.7°
